Regional Weather Roundup
Issued by NWS

Home | Current Version | Previous Version | Text Only | Print | Product List | Glossary On
Versions: 1 2 3 4 5 6 7 8 9 10 11 12 13 14 15 16 17 18 19 20 21 22 23 24 25 26 27 28
000
ASUS42 KKEY 221510
RWRKEY

FLORIDA REGIONAL WEATHER ROUNDUP FOR THE FLORIDA KEYS
NATIONAL WEATHER SERVICE KEY WEST FLORIDA
1100 AM EDT TUE AUG 22 2017

...SOUTH FLORIDA AND THE KEYS...

CITY           SKY/WX    TMP DP  RH WIND       PRES   REMARKS
FORT MYERS     PTSUNNY   88  79  74 E9        30.05R HX 103
SW REGIONAL AP MOSUNNY   88  76  67 E13       30.05S HX  99
NAPLES         SUNNY     88  77  69 E15       30.03S HX 100
MIAMI          LGT RAIN  89  78  70 SE9       30.03S HX 103
WEST KENDALL   PTSUNNY   89  77  67 E10       30.02S HX 101
HOMESTEAD      MOSUNNY   88  80  78 E7        30.02R HX 104
MARATHON       SUNNY     87  80  79 NE8       30.01R HX 103
BOCA CHICA NAS SUNNY     88  79  74 NE8       30.01S HX 103
KEY WEST INTL  MOSUNNY   88  77  69 E7        30.01S HX 100

...INTERNATIONAL WEATHER...

CITY           SKY/WX    TMP DP  RH WIND       PRES   REMARKS
NASSAU BAHAMAS NOT AVBL
CANCUN MEXICO  CLOUDY    82  77  83 E9        29.96S HX  91
COZUMEL MEXICO CLOUDY    82  79  89 SE6       29.94R HX  93

ADJACENT COASTAL WATERS...

STATION/POSITION TIME  SKY/WX   TEMP    WIND        PRES    WAVE
                                AIR SEA DIR/SP/G            HT/PER
                 (UTC)          (F)     (DEG/KT/KT) (MB)    (FT/S)
PULASKI SHOAL LI 1500            86      80/  8/  9 1016.8R
SAND KEY         1450            84                 1017.1R
LONG KEY         NOT AVBL
MOLASSES REEF    1400               86  140/  5/  6   N/A
FOWEY ROCKS      1400            85 85  110/ 10/ 11 1017.3R
Buoy 42097       1430               87                N/A     3/ 5

$$




USA.gov is the U.S. government's official web portal to all federal, state and local government web resources and services.